FW3668 Beaver Cove CA current weather conditions

sailwx.info

Wind from 145

Air temperature 10.0° C
Dewpoint 9.4° C

Last reported at 2020-Jul-06 04:01 UTC.
Time now 2020-Jul-06 05:00 UTC

Location: N 46°04' W 060°34'.
View on Google Maps.

See reports from other nearby stations

  
Tides and Currents Weather Stations Pressure Air Temp Water Temp Dewpoint Dewpoint Depression Visibility Wind Speed Wind Dir Waves Ship Positions
date/time (UTC)wind fromknots sea level pressurealtimeterstation pressurevisibilityair tempwater tempwave heightnotes
2020-Jul-06 04:01 145 10.0
2020-Jul-06 03:47 053 10.0
2020-Jul-06 03:31 051 10.0
2020-Jul-06 03:16 051 10.0
2020-Jul-06 03:00 051 10.0
2020-Jul-06 02:46 051 10.6
2020-Jul-06 02:30 176 11.1
2020-Jul-06 02:15 165 0 gusting 2 11.1
2020-Jul-06 02:00 114 1 gusting 5 11.1
2020-Jul-06 01:46 157 0 gusting 5 11.1
2020-Jul-06 01:30 110 0 gusting 7 11.7
2020-Jul-06 01:16 096 1 gusting 6 11.7
2020-Jul-06 01:00 131 0 gusting 5 12.2
2020-Jul-06 00:46 150 0 gusting 4 12.2
2020-Jul-06 00:30 226 0 gusting 6 12.8
2020-Jul-06 00:15 092 3 gusting 7 12.8
2020-Jul-06 00:00 207 3 gusting 7 13.3
2020-Jul-05 23:45 150 3 gusting 7 13.9
2020-Jul-05 23:30 169 3 gusting 8 14.4
2020-Jul-05 23:15 193 1 gusting 8 15.0
2020-Jul-05 23:00 124 3 gusting 8 15.6
2020-Jul-05 22:45 159 2 gusting 6 16.1
2020-Jul-05 22:30 164 3 gusting 6 16.7
2020-Jul-05 22:15 250 2 gusting 6 17.2
2020-Jul-05 22:02 234 17.8
2020-Jul-05 21:45 300 0 gusting 2 17.8
2020-Jul-05 21:30 242 0 gusting 2 17.8
2020-Jul-05 21:15 222 1 gusting 4 17.2
2020-Jul-05 21:00 269 3 gusting 6 17.2
2020-Jul-05 20:30 271 2 gusting 6 17.8
2020-Jul-05 20:15 269 3 gusting 6 18.3
2020-Jul-05 20:00 276 3 gusting 6 17.8
2020-Jul-05 19:45 225 4 gusting 6 17.8
2020-Jul-05 19:30 283 3 gusting 6 17.8
2020-Jul-05 19:15 300 2 gusting 6 17.8
2020-Jul-05 19:00 311 3 gusting 9 17.8
2020-Jul-05 18:45 252 3 gusting 7 17.2
2020-Jul-05 18:30 290 2 gusting 7 17.2
2020-Jul-05 18:16 270 2 gusting 7 17.2
2020-Jul-05 18:01 298 2 gusting 7 17.2
2020-Jul-05 17:46 257 3 gusting 6 16.7
2020-Jul-05 17:32 236 3 gusting 7 16.7
2020-Jul-05 17:17 279 3 gusting 6 16.7
2020-Jul-05 17:02 295 3 gusting 7 16.1
2020-Jul-05 16:46 234 2 gusting 6 16.1
2020-Jul-05 16:31 321 2 gusting 6 16.1
2020-Jul-05 16:16 286 2 gusting 6 16.1
2020-Jul-05 16:01 237 3 gusting 7 15.6
2020-Jul-05 15:46 226 2 gusting 6 16.1
2020-Jul-05 15:31 022 1 gusting 6 15.6
2020-Jul-05 15:16 355 3 gusting 5 15.6
2020-Jul-05 15:01 027 1 gusting 5 14.4
2020-Jul-05 14:46 032 2 gusting 5 14.4
2020-Jul-05 14:31 033 3 gusting 6 14.4
2020-Jul-05 14:17 011 3 gusting 6 13.9
2020-Jul-05 14:01 360 4 gusting 7 13.9
2020-Jul-05 13:46 360 2 gusting 4 13.9
2020-Jul-05 13:31 078 2 gusting 5 13.3
2020-Jul-05 13:17 030 1 gusting 7 12.8
2020-Jul-05 13:00 355 2 gusting 5 12.8
2020-Jul-05 12:45 051 1 gusting 5 12.2
2020-Jul-05 12:31 348 2 gusting 5 12.2
2020-Jul-05 12:16 360 0 gusting 3 12.2
2020-Jul-05 12:00 005 0 gusting 3 11.7
2020-Jul-05 11:45 022 0 gusting 4 11.7
2020-Jul-05 11:30 015 1 gusting 3 11.1
2020-Jul-05 11:15 031 0 gusting 2 11.1
2020-Jul-05 11:00 074 1 gusting 5 11.1
2020-Jul-05 10:45 115 0 gusting 2 11.1
2020-Jul-05 10:30 259 10.6
2020-Jul-05 10:15 259 0 gusting 1 10.6
2020-Jul-05 10:00 212 10.0
2020-Jul-05 09:48 212 10.0
2020-Jul-05 09:32 159 10.0
2020-Jul-05 09:30 159 10.0
2020-Jul-05 09:16 187 0 gusting 2 10.0
2020-Jul-05 09:02 105 0 gusting 1 10.0
2020-Jul-05 08:46 105 0 gusting 2 10.0
2020-Jul-05 08:31 167 0 gusting 3 10.0
2020-Jul-05 08:16 107 1 gusting 4 10.0
2020-Jul-05 08:01 086 1 gusting 5 10.0
2020-Jul-05 07:46 111 0 gusting 2 10.0
2020-Jul-05 07:31 128 1 gusting 4 10.0
2020-Jul-05 07:16 092 0 gusting 3 10.0
2020-Jul-05 07:00 144 1 gusting 4 10.0
2020-Jul-05 06:46 107 2 gusting 5 10.0
2020-Jul-05 06:31 138 1 gusting 5 10.0
2020-Jul-05 06:17 060 0 gusting 4 10.0
2020-Jul-05 06:01 061 0 gusting 3 10.0
2020-Jul-05 05:46 060 0 gusting 1 10.0
2020-Jul-05 05:30 060 0 gusting 3 10.0
2020-Jul-05 05:16 090 1 gusting 4 10.0
2020-Jul-05 05:00 080 1 gusting 6 10.6
2020-Jul-05 04:46 088 2 gusting 6 10.6
2020-Jul-05 04:31 118 3 gusting 7 10.6
2020-Jul-05 04:15 121 2 gusting 6 10.6
2020-Jul-05 04:01 105 2 gusting 6 10.6
2020-Jul-05 03:46 108 1 gusting 6 10.6
2020-Jul-05 03:30 140 1 gusting 6 10.6
2020-Jul-05 03:16 109 1 gusting 5 10.6
2020-Jul-05 03:00 103 0 gusting 3 11.1
2020-Jul-05 02:45 151 1 gusting 4 11.1
2020-Jul-05 02:30 138 11.1
2020-Jul-05 02:15 161 0 gusting 3 11.1
2020-Jul-05 02:00 139 1 gusting 3 11.1
2020-Jul-05 01:45 178 1 gusting 4 11.1
2020-Jul-05 01:30 175 2 gusting 6 11.1
2020-Jul-05 01:00 084 1 gusting 6 11.1
2020-Jul-05 00:45 080 3 gusting 8 11.1
2020-Jul-05 00:30 084 2 gusting 6 11.1
2020-Jul-05 00:15 169 3 gusting 6 11.7
2020-Jul-05 00:00 088 0 gusting 6 11.7
2020-Jul-04 23:45 069 2 gusting 5 11.7
2020-Jul-04 23:30 091 3 gusting 6 12.2
2020-Jul-04 23:15 088 5 gusting 10 12.2
2020-Jul-04 23:00 091 1 gusting 8 12.2
2020-Jul-04 22:45 094 5 gusting 8 12.8
2020-Jul-04 22:30 074 5 gusting 7 12.8
2020-Jul-04 22:15 067 3 gusting 7 12.8
2020-Jul-04 22:00 076 2 gusting 7 13.3
2020-Jul-04 21:45 061 5 gusting 9 13.3
2020-Jul-04 21:17 055 3 gusting 6 13.9
2020-Jul-04 21:01 127 2 gusting 6 13.9
2020-Jul-04 20:47 055 1 gusting 5 14.4
2020-Jul-04 20:32 105 2 gusting 8 14.4
2020-Jul-04 20:18 080 4 gusting 7 14.4
2020-Jul-04 20:01 082 3 gusting 10 14.4
2020-Jul-04 19:46 063 3 gusting 9 14.4
2020-Jul-04 19:31 103 5 gusting 10 15.0
2020-Jul-04 19:16 082 4 gusting 9 15.6
2020-Jul-04 19:01 090 2 gusting 9 15.6
2020-Jul-04 18:45 134 4 gusting 9 15.6
2020-Jul-04 18:32 093 1 gusting 6 16.1
2020-Jul-04 18:19 096 4 gusting 8 16.1
2020-Jul-04 18:01 142 1 gusting 8 16.1
2020-Jul-04 17:46 080 1 gusting 6 15.6
2020-Jul-04 17:31 109 5 gusting 12 15.6
2020-Jul-04 17:17 064 6 gusting 10 16.1
2020-Jul-04 17:02 061 6 gusting 11 16.7
2020-Jul-04 16:45 086 4 gusting 12 16.1
2020-Jul-04 16:31 110 6 gusting 10 15.6
2020-Jul-04 16:16 169 2 gusting 8 15.6
2020-Jul-04 16:01 107 4 gusting 11 15.6
2020-Jul-04 15:47 145 6 gusting 10 15.6
2020-Jul-04 15:30 110 7 gusting 15 15.0
2020-Jul-04 15:15 078 3 gusting 8 15.6
2020-Jul-04 15:01 070 3 gusting 10 15.0
2020-Jul-04 14:45 069 2 gusting 6 15.0
2020-Jul-04 14:30 025 2 gusting 6 14.4
2020-Jul-04 14:15 066 1 gusting 3 15.0
2020-Jul-04 14:00 178 3 gusting 7 14.4
2020-Jul-04 13:46 119 2 gusting 8 14.4
2020-Jul-04 13:30 054 3 gusting 8 14.4
2020-Jul-04 13:15 085 3 gusting 6 14.4
2020-Jul-04 13:00 143 4 gusting 6 13.9
2020-Jul-04 12:45 063 2 gusting 7 13.9
2020-Jul-04 12:30 096 0 gusting 5 13.9
2020-Jul-04 12:15 103 2 gusting 8 13.9
2020-Jul-04 12:00 076 2 gusting 7 13.3
2020-Jul-04 11:45 134 4 gusting 8 13.3
2020-Jul-04 11:30 071 1 gusting 6 13.3
2020-Jul-04 11:15 074 1 gusting 3 12.8
2020-Jul-04 11:01 087 1 gusting 3 12.8
2020-Jul-04 10:45 126 0 gusting 4 12.8
2020-Jul-04 10:30 080 12.2
2020-Jul-04 10:15 080 11.7
2020-Jul-04 10:00 063 1 gusting 3 11.7
2020-Jul-04 09:45 089 0 gusting 2 11.1
2020-Jul-04 09:32 080 1 gusting 2 11.1
2020-Jul-04 09:18 080 11.1
2020-Jul-04 09:02 081 11.1
2020-Jul-04 08:46 088 0 gusting 3 11.1
2020-Jul-04 08:33 060 11.1
2020-Jul-04 08:16 060 0 gusting 4 11.1
2020-Jul-04 08:01 074 11.1
2020-Jul-04 07:46 107 11.1
2020-Jul-04 07:31 068 11.1
2020-Jul-04 07:17 084 0 gusting 6 11.7
2020-Jul-04 07:01 159 11.7
2020-Jul-04 06:46 184 11.7
2020-Jul-04 06:31 117 2 gusting 6 11.7
2020-Jul-04 06:16 091 1 gusting 6 11.7
2020-Jul-04 06:02 122 1 gusting 6 11.7
2020-Jul-04 05:46 147 3 gusting 9 11.7
2020-Jul-04 05:31 114 1 gusting 7 11.7
2020-Jul-04 05:17 111 3 gusting 6 11.7
2020-Jul-04 05:01 196 3 gusting 8 11.7